Hourly Weather Toropovo

Today, 14 July, Tuesday

Time Temperature Precipitation Wind Pressure Humidity
00:00 +19°C° 0 mm 2 mps 743 mmHg 95%
01:00 +19°C° 0.1 mm 2 mps 743 mmHg 95%
02:00 +18°C° 0.1 mm 2 mps 743 mmHg 96%
03:00 +19°C° 0 mm 1 mps 744 mmHg 95%
04:00 +18°C° 0.1 mm 2 mps 743 mmHg 94%
05:00 +19°C° 0.1 mm 2 mps 743 mmHg 93%
06:00 +19°C° 0.1 mm 2 mps 742 mmHg 92%
07:00 +21°C° 0.1 mm 3 mps 742 mmHg 89%
08:00 +22°C° 0.1 mm 4 mps 742 mmHg 85%
09:00 +23°C° 0.1 mm 5 mps 742 mmHg 82%
10:00 +26°C° 0 mm 5 mps 742 mmHg 77%
11:00 +28°C° 0 mm 5 mps 741 mmHg 72%
12:00 +29°C° 0 mm 5 mps 741 mmHg 68%
13:00 +30°C° 0 mm 4 mps 741 mmHg 65%
14:00 +32°C° 0 mm 4 mps 740 mmHg 62%
15:00 +33°C° 0 mm 4 mps 740 mmHg 60%
16:00 +32°C° 0 mm 4 mps 740 mmHg 62%
17:00 +30°C° 0 mm 4 mps 739 mmHg 64%
18:00 +29°C° 0 mm 4 mps 738 mmHg 67%
19:00 +27°C° 0.1 mm 4 mps 739 mmHg 70%
20:00 +26°C° 0.1 mm 4 mps 739 mmHg 74%
21:00 +23°C° 0.1 mm 5 mps 739 mmHg 77%
22:00 +22°C° 0.1 mm 5 mps 739 mmHg 82%
23:00 +21°C° 0.1 mm 5 mps 739 mmHg 88%

Tomorrow, 15 July, Wednesday

Time Temperature Precipitation Wind Pressure Humidity
00:00 +20°C° 0.1 mm 5 mps 740 mmHg 93%
01:00 +19°C° 0 mm 5 mps 740 mmHg 93%
02:00 +18°C° 0 mm 4 mps 740 mmHg 94%
03:00 +17°C° 0 mm 4 mps 741 mmHg 94%
04:00 +16°C° 0 mm 5 mps 741 mmHg 93%
05:00 +17°C° 0 mm 5 mps 741 mmHg 92%
06:00 +17°C° 0 mm 6 mps 741 mmHg 90%
07:00 +19°C° 0 mm 6 mps 741 mmHg 86%
08:00 +20°C° 0 mm 6 mps 742 mmHg 82%
09:00 +21°C° 0 mm 6 mps 742 mmHg 78%
10:00 +21°C° 0.4 mm 6 mps 742 mmHg 75%
11:00 +22°C° 0.4 mm 7 mps 742 mmHg 73%
12:00 +22°C° 0.4 mm 7 mps 742 mmHg 71%
13:00 +22°C° 0.4 mm 7 mps 742 mmHg 73%
14:00 +21°C° 0.4 mm 7 mps 742 mmHg 74%
15:00 +21°C° 0.4 mm 8 mps 743 mmHg 75%
16:00 +20°C° 0.2 mm 7 mps 743 mmHg 75%
17:00 +18°C° 0.2 mm 7 mps 743 mmHg 75%
18:00 +17°C° 0.2 mm 7 mps 743 mmHg 75%
19:00 +16°C° 0 mm 6 mps 743 mmHg 77%
20:00 +15°C° 0 mm 5 mps 743 mmHg 79%
21:00 +14°C° 0 mm 5 mps 743 mmHg 80%
22:00 +14°C° 0 mm 5 mps 743 mmHg 79%
23:00 +13°C° 0 mm 5 mps 743 mmHg 78%

Day after tomorrow, 16 July, Thursday

Time Temperature Precipitation Wind Pressure Humidity
00:00 +13°C° 0 mm 5 mps 742 mmHg 78%
01:00 +13°C° 0 mm 5 mps 742 mmHg 77%
02:00 +13°C° 0 mm 6 mps 742 mmHg 76%
03:00 +13°C° 0 mm 6 mps 742 mmHg 75%
04:00 +13°C° 0 mm 6 mps 742 mmHg 78%
05:00 +13°C° 0 mm 6 mps 742 mmHg 82%
06:00 +13°C° 0 mm 6 mps 742 mmHg 85%
07:00 +13°C° 0 mm 6 mps 742 mmHg 85%
08:00 +13°C° 0 mm 6 mps 743 mmHg 85%
09:00 +14°C° 0 mm 6 mps 743 mmHg 85%
10:00 +14°C° 0 mm 6 mps 743 mmHg 84%
11:00 +15°C° 0 mm 6 mps 743 mmHg 83%
12:00 +15°C° 0 mm 6 mps 744 mmHg 81%
13:00 +15°C° 0.1 mm 6 mps 744 mmHg 82%
14:00 +15°C° 0.1 mm 6 mps 744 mmHg 83%
15:00 +15°C° 0.1 mm 6 mps 744 mmHg 84%
16:00 +15°C° 0 mm 5 mps 744 mmHg 84%
17:00 +15°C° 0 mm 5 mps 744 mmHg 85%
18:00 +15°C° 0 mm 4 mps 744 mmHg 86%
19:00 +14°C° 0 mm 4 mps 744 mmHg 88%
20:00 +14°C° 0 mm 4 mps 745 mmHg 89%
21:00 +14°C° 0 mm 3 mps 745 mmHg 91%
22:00 +13°C° 0 mm 3 mps 745 mmHg 92%
23:00 +13°C° 0 mm 3 mps 745 mmHg 93%

17 July, Friday

Time Temperature Precipitation Wind Pressure Humidity
00:00 +13°C° 0 mm 3 mps 745 mmHg 94%
01:00 +13°C° 0 mm 3 mps 745 mmHg 94%
02:00 +13°C° 0 mm 3 mps 745 mmHg 94%
03:00 +13°C° 0 mm 3 mps 745 mmHg 94%
04:00 +13°C° 0 mm 3 mps 745 mmHg 93%
05:00 +15°C° 0 mm 2 mps 745 mmHg 93%
06:00 +15°C° 0 mm 2 mps 745 mmHg 92%
07:00 +14°C° 0 mm 3 mps 745 mmHg 90%
08:00 +16°C° 0 mm 3 mps 745 mmHg 88%
09:00 +17°C° 0 mm 3 mps 746 mmHg 86%
10:00 +17°C° 0 mm 3 mps 746 mmHg 83%
11:00 +18°C° 0 mm 3 mps 746 mmHg 80%
12:00 +19°C° 0 mm 3 mps 746 mmHg 77%
13:00 +19°C° 0.2 mm 3 mps 746 mmHg 78%
14:00 +19°C° 0.2 mm 3 mps 746 mmHg 79%
15:00 +20°C° 0.2 mm 3 mps 746 mmHg 80%
16:00 +20°C° 0.1 mm 3 mps 746 mmHg 79%
17:00 +20°C° 0.1 mm 3 mps 746 mmHg 78%
18:00 +20°C° 0.1 mm 3 mps 746 mmHg 77%
19:00 +19°C° 0 mm 3 mps 746 mmHg 82%
20:00 +17°C° 0 mm 3 mps 747 mmHg 87%
21:00 +16°C° 0 mm 2 mps 747 mmHg 91%
22:00 +15°C° 0 mm 2 mps 747 mmHg 92%
23:00 +15°C° 0 mm 2 mps 747 mmHg 92%

18 July, Saturday

Time Temperature Precipitation Wind Pressure Humidity
00:00 +14°C° 0 mm 1 mps 747 mmHg 93%
01:00 +14°C° 0 mm 1 mps 747 mmHg 93%
02:00 +14°C° 0 mm 1 mps 748 mmHg 94%
03:00 +13°C° 0 mm 1 mps 748 mmHg 94%
04:00 +14°C° 0 mm 1 mps 748 mmHg 93%
05:00 +14°C° 0 mm 2 mps 748 mmHg 93%
06:00 +15°C° 0 mm 2 mps 749 mmHg 92%
07:00 +16°C° 0 mm 2 mps 749 mmHg 87%
08:00 +18°C° 0 mm 3 mps 749 mmHg 81%
09:00 +19°C° 0 mm 3 mps 749 mmHg 76%
10:00 +20°C° 0 mm 4 mps 749 mmHg 73%
11:00 +20°C° 0 mm 4 mps 749 mmHg 71%
12:00 +21°C° 0 mm 4 mps 749 mmHg 69%
13:00 +21°C° 0.1 mm 4 mps 749 mmHg 68%
14:00 +21°C° 0.1 mm 4 mps 749 mmHg 67%
15:00 +21°C° 0.1 mm 4 mps 749 mmHg 66%
16:00 +21°C° 0 mm 3 mps 749 mmHg 67%
17:00 +21°C° 0 mm 3 mps 749 mmHg 68%
18:00 +21°C° 0 mm 2 mps 749 mmHg 70%
19:00 +20°C° 0.1 mm 2 mps 749 mmHg 76%
20:00 +18°C° 0.1 mm 2 mps 749 mmHg 81%
21:00 +17°C° 0.1 mm 2 mps 749 mmHg 87%
22:00 +16°C° 0 mm 2 mps 749 mmHg 89%
23:00 +15°C° 0 mm 2 mps 749 mmHg 91%

19 July, Sunday

Time Temperature Precipitation Wind Pressure Humidity
00:00 +14°C° 0 mm 2 mps 749 mmHg 94%
01:00 +14°C° 0 mm 2 mps 749 mmHg 94%
02:00 +14°C° 0 mm 2 mps 749 mmHg 95%
03:00 +13°C° 0 mm 2 mps 749 mmHg 96%
04:00 +14°C° 0 mm 2 mps 749 mmHg 95%
05:00 +14°C° 0 mm 2 mps 750 mmHg 93%
06:00 +14°C° 0 mm 3 mps 750 mmHg 92%
07:00 +16°C° 0 mm 3 mps 749 mmHg 86%
08:00 +18°C° 0 mm 3 mps 749 mmHg 80%
09:00 +19°C° 0 mm 3 mps 749 mmHg 74%
10:00 +20°C° 0.4 mm 3 mps 749 mmHg 72%
11:00 +21°C° 0.4 mm 3 mps 749 mmHg 71%
12:00 +21°C° 0.4 mm 4 mps 749 mmHg 69%
13:00 +22°C° 0.9 mm 3 mps 748 mmHg 68%
14:00 +22°C° 0.9 mm 3 mps 748 mmHg 67%
15:00 +22°C° 0.9 mm 3 mps 748 mmHg 66%
16:00 +22°C° 0.4 mm 3 mps 747 mmHg 70%
17:00 +21°C° 0.4 mm 3 mps 747 mmHg 73%
18:00 +21°C° 0.4 mm 3 mps 747 mmHg 76%
19:00 +19°C° 0.2 mm 2 mps 747 mmHg 81%
20:00 +17°C° 0.2 mm 2 mps 746 mmHg 86%
21:00 +16°C° 0.2 mm 2 mps 746 mmHg 91%
22:00 +15°C° 0 mm 2 mps 746 mmHg 92%
23:00 +15°C° 0 mm 2 mps 746 mmHg 93%
Show more